724  
ASUS43 KFSD 231410  
RWRFSD  
 
WEATHER ROUNDUP FOR SE SOUTH DAKOTA/SW MINNESOTA/NW IOWA  
NATIONAL WEATHER SERVICE SIOUX FALLS SD  
900 AM CDT SAT OCT 23 2021  
 
NOTE: "FAIR" INDICATES FEW OR NO CLOUDS BELOW 12,000 FEET WITH NO  
SIGNIFICANT WEATHER AND OR S TO VISIBILITY
.  
 
 
SDZ038>040-050-052>070-231500-  
SOUTHEAST SOUTH DAKOTA  
 
CITY SKY/WX TMP DP RH WIND PRES REMARKS
 
BROOKINGS MOSUNNY 34 29 82 CALM 30.04S  
CHAMBERLAIN PTCLDY 36 36 100 SE10G16 29.96R  
HURON PTCLDY 37 31 78 E8 30.01S  
MITCHELL PTCLDY 37 33 85 E8 30.01S  
SIOUX FALLS PTSUNNY 36 31 82 E6 30.03S  
WINNER PTCLDY 37 33 85 SE13 29.93R  
YANKTON MOSUNNY 33 33 100 E7 30.00S FOG WCI 27  

 
 
MNZ071-072-080-081-089-090-097-098-231500-  
SOUTHWEST MINNESOTA  
 
CITY SKY/WX TMP DP RH WIND PRES REMARKS
 
FAIRMONT SUNNY 33 32 96 N5 30.09R WCI 29  
JACKSON SUNNY 32 30 93 NE6 30.07R WCI 26  
MARSHALL SUNNY 32 30 92 CALM 30.09R  
MONTEVIDEO SUNNY 30 28 93 CALM 30.10R  
PIPESTONE MOSUNNY 34 30 86 SE3 30.03S  
REDWOOD FALLS SUNNY 33 30 88 E3 30.09R  
TRACY SUNNY 32 29 89 CALM 30.08R  
WINDOM SUNNY 32 30 93 NE6 30.07R WCI 26  
WORTHINGTON MOSUNNY 34 32 92 CALM 30.06R  

 
 
IAZ001>003-012>014-020>022-031-032-NEZ013-014-SDZ071-231500-  
NORTHWEST IOWA  
 
CITY SKY/WX TMP DP RH WIND PRES REMARKS
 
CHEROKEE MOSUNNY 33 33 100 E5 30.04S WCI 29  
DENISON MOSUNNY 37 37 100 E7 30.04R  
ESTHERVILLE SUNNY 33 31 92 NE3 30.07R  
LE MARS MOSUNNY 36 34 93 NE6 30.03R  
MAURICE FAIR 34 32 93 E6 30.02R WCI 29  
SHELDON MOSUNNY 34 34 100 E7 30.01F WCI 28  
SIOUX CITY MOSUNNY 36 32 85 E3 30.03R  
SPENCER MOSUNNY 34 30 85 E5 30.06R WCI 30  
STORM LAKE MOSUNNY 34 34 100 E8 30.04R WCI 27  

 
 
ABBREVIATIONS USED IN REMARKS  
TC - TEMPERATURE IN CELSIUS  
WCI - WIND CHILL INDEX  
HX - HEAT INDEX  
VSB - VISIBILITY  
 
 
 
CLICK HERE TO GO TO PREVIOUS BULLETINS.

The Nexlab SD Page Main Text Page

The Nexlab SD Page
The Nexlab IA Page
The Nexlab MN Page
The Nexlab NE Page Main Text Page